Location: Moscow
(55.7500°N, 37.5830°E)
Time: 18:09:28
(UTC+03:00)

Transit 2A - Pass Details

Date: 04 December 2021
Orbit: 591 x 967 km, 66.7° (Epoch: 21 January)

Event Time Altitude Azimuth Distance (km) Brightness Sun altitude
Rises 01:41:19 0° 224° (SW) 3,376 - -53.2°
Reaches altitude 10° 01:43:40 10° 225° (SW) 2,497 - -53.0°
Maximum altitude 01:49:33 85° 313° (NW) 927 - -52.6°
Drops below altitude 10° 01:55:55 10° 44° (NE) 2,693 - -52.0°
Exits shadow 01:56:22 - 44° (NE) 2,860 9.4 -52.0°
Sets 01:58:32 0° 45° (NE) 3,659 10.1 -51.8°
